MYSat 1
1 44045U 18092F 19156.82893248 .00001763 00000-0 62489-4 0 9993
2 44045 051.6415 073.1811 0012665 042.8875 317.3109 15.34867649017269
AstroCast 0.2
1 44083U 19018F 19156.71790709 .00000391 00000-0 20540-4 0 9998
2 44083 097.4694 216.8046 0015425 058.1093 302.1641 15.21362506009940
AISTechSat 3
1 44103U 19018AB 19156.73151973 .00000756 00000-0 35502-4 0 9996
2 44103 097.4574 216.8169 0015331 075.0181 285.2751 15.22601806009952
AISat 1
1 44104U 19018AC 19156.78927950 .00000888 00000-0 31259-4 0 9999
2 44104 097.5104 218.0717 0060750 111.9729 248.7982 15.30438927010031
